Tracking 17752 objects as of 1-July-2016
HD Live streaming from Space Station
objects crossing your sky now

MAQSAT H

Track MAQSAT H now!
10-day predictions
MAQSAT H is classified as:


NORAD ID: 25023
Int'l Code: 1997-066A
Perigee: 586.4 km
Apogee: 26,412.5 km
Inclination: 7.6 °
Period: 464.6 minutes
Semi major axis: 19870 km
RCS: 21.0323 m2 (large)
Launch date: October 30, 1997
Source: European Space Agency (ESA)
Launch site: FRENCH GUIANA (FRGUI)
Your satellite tracking list
Your tracking list is empty





NASA's NSSDC Master Catalog

Two Line Element Set (TLE):
1 25023U 97066A   16181.75438044 -.00000060 +00000-0 -92368-4 0  9992
2 25023 007.6410 215.2899 6498630 105.7669 343.3721 03.09950541210943
Source of the keplerian elements: AFSPC

N2YO: 913